User: anonymous   Login
Location: Mascot Post Office (historical)
(40.2645°N, 99.5462°W)
Time: 18:10:38
(UTC+00:00)
Language:

Cosmos 494 Rocket - Orbit

View from above orbital plane
View from above orbital plane
View from above satellite
View from above satellite

Ground track
Ground track

The orbit data is extracted from the following two-line orbital elements,

1  6061U 72043B   20262.88082917 +.00000060 +00000-0 +27080-4 0  9991
2  6061 074.0567 142.7165 0020419 331.7189 028.2856 14.40587219529376
Epoch (UTC): 18 September 2020 21:08:23
Eccentricity: 0.0020419
inclination: 74.0567°
perigee height: 742 km
apogee height: 771 km
right ascension of ascending node: 142.7165°
argument of perigee: 331.7189°
revolutions per day: 14.40587219
mean anomaly at epoch: 28.2856°
orbit number at epoch: 52937

The dashed part of the orbit path shows where the satellite is in the earth's shadow,  

DLR